Overview Statistics Trail Chart Weather Telemetry Raw packets
 

This is the latest recevied weather packets stored in our database for station/object 4S6DRJ-13. If no packets are shown the sender has not sent any weather packets the latest 10 day(s).

<< 340 341 342 343 344 345 346 >>
Time Temp. Humidity Pressure Rain* Wind** Luminosity Snow
1787958146 27.78° C 85% 1008.9 hPa 0 mm 0.89 m/s, 191° 0 W/m² -
1787958084 27.78° C 85% 1008.6 hPa 0 mm 0.45 m/s, 177° 0 W/m² -
1787958024 27.78° C 85% 1008.9 hPa 0 mm 0.89 m/s, 218° 0 W/m² -
1787957963 27.78° C 85% 1008.8 hPa 0 mm 0.45 m/s, 221° 0 W/m² -
1787957902 27.78° C 85% 1008.8 hPa 0 mm 1.79 m/s, 226° 0 W/m² -
1787957841 27.78° C 85% 1008.6 hPa 0 mm 0.89 m/s, 172° 0 W/m² -
1787957780 27.78° C 85% 1008.9 hPa 0 mm 0.45 m/s, 214° 0 W/m² -
1787957728 27.78° C 85% 1008.8 hPa 0 mm 0.89 m/s, 237° 0 W/m² -
1787957658 27.78° C 85% 1008.9 hPa 0 mm 1.34 m/s, 257° 0 W/m² -
1787957597 27.78° C 85% 1008.8 hPa 0 mm 1.79 m/s, 231° 0 W/m² -
1787957536 27.78° C 85% 1008.8 hPa 0 mm 0.45 m/s, 232° 0 W/m² -
1787957474 27.78° C 85% 1008.7 hPa 0 mm 0 m/s 0 W/m² -
1787957414 27.78° C 85% 1009.1 hPa 0 mm 0.45 m/s, 258° 0 W/m² -
1787957352 27.78° C 85% 1008.9 hPa 0 mm 1.34 m/s, 252° 0 W/m² -
1787957292 27.78° C 85% 1009 hPa 0 mm 0 m/s 0 W/m² -
1787957231 27.78° C 85% 1008.9 hPa 0 mm 0 m/s 0 W/m² -
1787957170 27.78° C 85% 1009 hPa 0 mm 0.89 m/s, 237° 0 W/m² -
1787957109 27.78° C 85% 1008.7 hPa 0 mm 0.45 m/s, 218° 0 W/m² -
1787957048 27.78° C 85% 1008.8 hPa 0 mm 0.45 m/s, 238° 0 W/m² -
1787956987 27.78° C 85% 1009 hPa 0 mm 1.34 m/s, 38° 0 W/m² -
1787956926 27.78° C 85% 1008.8 hPa 0 mm 0.45 m/s, 254° 0 W/m² -
1787956865 27.78° C 85% 1009 hPa 0 mm 0.45 m/s, 223° 0 W/m² -
1787956804 27.78° C 85% 1008.8 hPa 0 mm 1.34 m/s, 217° 0 W/m² -
1787956742 27.78° C 85% 1008.6 hPa 0 mm 0.89 m/s, 355° 0 W/m² -
1787956682 27.78° C 85% 1008.7 hPa 0 mm 0 m/s 0 W/m² -

* Rain latest hour (hover to see other rain measurements)
** Current wind speed in m/s (hover to see current wind gust speed)